Total_Precipitation_Accumulation
0.00 0.01 0.02 0.01 0.01 0.08 0.09 0.02 0.04 0.06 0.04 0.02 0.02 0.05 0.03 0.03 0.02 0.02 0.06 0.02 0.01 0.00
0.00 0.00 0.00 0.00 0.02 0.00 0.01 0.04 0.04 0.02 0.05 0.03 0.03 0.03 0.15 0.13 0.04 0.10 0.06 0.07 0.06 0.02
0.00 0.00 0.01 0.05 0.03 0.00 0.00 0.00 0.05 0.07 0.06 0.02 0.07 0.11 0.17 0.07 0.06 0.16 0.09 0.01 0.07 0.08
0.00 0.00 0.00 0.00 0.01 0.00 0.01 0.03 0.02 0.03 0.07 0.07 0.10 0.12 0.16 0.09 0.16 0.18 0.14 0.07 0.08 0.09
0.03 0.02 0.01 0.02 0.01 0.02 0.02 0.05 0.07 0.10 0.11 0.09 0.07 0.09 0.11 0.14 0.11 0.14 0.12 0.11 0.24 0.06
0.14 0.09 0.10 0.14 0.09 0.09 0.04 0.11 0.25 0.19 0.10 0.09 0.09 0.10 0.12 0.12 0.12 0.08 0.06 0.07 0.08 0.06
0.15 0.27 0.32 0.60 0.99 1.25 0.72 0.53 0.44 0.21 0.19 0.14 0.16 0.12 0.09 0.13 0.11 0.10 0.04 0.13 0.15 0.08
0.19 0.41 0.65 0.88 1.30 1.75 1.28 1.06 0.80 0.67 0.56 0.34 0.24 0.14 0.17 0.13 0.15 0.12 0.08 0.06 0.05 0.04
0.40 0.46 0.35 0.37 0.54 0.90 0.93 1.17 1.52 0.94 0.71 0.75 0.77 0.59 0.25 0.22 0.16 0.11 0.05 0.04 0.05 0.05
0.38 0.32 0.22 0.25 0.28 0.36 0.63 0.80 0.60 0.59 0.53 0.46 0.37 0.25 0.17 0.32 0.54 0.36 0.19 0.11 0.09 0.05
0.36 0.41 0.22 0.18 0.14 0.19 0.41 0.46 0.47 0.39 0.32 0.24 0.24 0.37 0.39 0.51 0.59 0.36 0.25 0.18 0.15 0.15
0.19 0.20 0.15 0.10 0.10 0.09 0.13 0.13 0.17 0.10 0.09 0.07 0.03 0.18 0.23 0.55 0.48 0.30 0.15 0.21 0.27 0.24
0.23 0.20 0.18 0.18 0.18 0.22 0.09 0.05 0.03 0.01 0.02 0.02 0.02 0.08 0.15 0.23 0.26 0.25 0.17 0.27 0.32 0.36
0.29 0.36 0.23 0.20 0.17 0.15 0.09 0.06 0.01 0.00 0.01 0.02 0.02 0.03 0.02 0.16 0.18 0.10 0.20 0.21 0.21 0.31